{"data":{"norad_id":59406,"intl_designator":"2024-064J","name":"STARLINK-31391","alt_names":[],"object_type":"PAYLOAD","status":"ACTIVE","operator":null,"country":"US","launch_date":"2024-04-05","launch_site_code":"AFETR","launch_vehicle":null,"mission":null,"orbit_class":"UNKNOWN","rcs_meters":null,"size_class":null,"mass_kg":null,"dimensions":null,"purposes":["comms"],"wikipedia_slug":null,"has_3d_model":false,"image_url":null,"decayed_at":null,"tle_current":{"epoch":"2026-05-24T23:04:00.009408Z","epoch_age_seconds":89138,"freshness":"FRESH","line1":"1 59406U 24064J   26144.96111122  .00000029  00000+0  10591-4 0  9990","line2":"2 59406  43.0023 345.1619 0000989 255.4710 104.6032 15.27559239120891","mean_motion":15.27559239,"eccentricity":9.89e-5,"inclination_deg":43.0023,"raan_deg":345.1619,"arg_perigee_deg":255.471,"mean_anomaly_deg":104.6032,"bstar":1.0591e-5,"rev_number":12089,"period_min":94.268029889478,"perigee_km":482.43268519329,"apogee_km":483.78984009964,"semimajor_km":6861.2482626465,"source":"CELESTRAK","updated_at":"2026-05-25T13:38:18.940388Z"}}}